Regional Weather Roundup
Issued by NWS Bismarck, ND

Home | Current Version | Previous Version | Text Only | Print | Product List | Glossary On
Versions: 1 2 3 4 5 6 7 8 9 10 11 12 13 14 15 16 17 18 19 20 21 22 23 24 25 26 27 28 29 30 31 32 33 34 35 36 37 38 39 40 41 42 43 44 45 46 47 48 49 50
000
ASUS43 KBIS 161810
RWRBIS

NWR BROADCAST TEXT
NATIONAL WEATHER SERVICE BISMARCK ND
100 PM CDT TUE SEP 16 2014

NOTE: "FAIR" INDICATES FEW OR NO CLOUDS BELOW 12,000 FEET WITH NO
SIGNIFICANT WEATHER AND/OR OBSTRUCTIONS TO VISIBILITY.


CITY           SKY/WX    TMP DP  RH WIND       PRES   REMARKS
WILLISTON      SUNNY     69  36  29 E3        29.99F
MINOT          SUNNY     69  43  38 NE7       29.98F
MINOT AFB      SUNNY     68  41  36 NE6       29.97F
BISMARCK       SUNNY     67  46  47 SE3       30.00F
DICKINSON      SUNNY     69  48  47 NE5       29.97F
GARRISON         N/A     64  47  53 S6        29.99F
HETTINGER ARPT SUNNY     70  46  42 VRB3      29.99F
JAMESTOWN      SUNNY     66  46  48 S10       30.00F
BEACH            N/A     70  39  32 CALM      30.00S
CARRINGTON     FAIR      68  41  37 SW7       30.01F
CROSBY         FAIR      72  36  26 S3        29.98F
HARVEY         FAIR      70  39  32 SW6       29.99F
HAZEN          FAIR      66  46  48 CALM      29.99F
LINTON         FAIR      66  46  48 SE6       29.99F
MANDAN         FAIR      64  46  52 E3        30.00F
OAKES            N/A     68  46  45 S13G20    30.01F
RUGBY          FAIR      66  45  45 CALM      29.99F
STANLEY        FAIR      68  36  30 N5        29.99F
TIOGA          FAIR      68  36  30 CALM      30.01F
WATFORD CITY   FAIR      68  36  30 CALM      29.97F
$$

CITY           SKY/WX    TMP DP  RH WIND       PRES   REMARKS
GRAND FORKS    MOSUNNY   71  44  37 W10       29.99F
GRAND FORKS AF SUNNY     72  46  39 SW10      30.00F
DEVILS LAKE    SUNNY     66  45  45 SW6       29.99F
FARGO          SUNNY     68  44  42 S9        30.03F
CANDO          FAIR      70  41  35 W7        29.99F
CAVALIER       FAIR      70  45  40 W3        29.97F
GRAFTON        FAIR      68  45  42 CALM      29.98F
GWINNER        CLEAR     70  46  43 S9        30.03F
LANGDON        FAIR      72  37  28 NW6       29.98F
ROLLA            N/A     68  36  30 W6        29.99F
WALHALLA         N/A     68  41  37 SE5       29.97F
$$

CITY           SKY/WX    TMP DP  RH WIND       PRES   REMARKS
ABERDEEN       SUNNY     64  47  53 S12       30.01F
MOBRIDGE       SUNNY     66  48  52 VRB3      29.97F
BUFFALO          N/A     74  47  38 VRB3      29.93F
RAPID CITY     SUNNY     77  46  33 SW3       30.02F
GLASGOW        MOSUNNY   68  41  37 SE8       29.97F
SIDNEY         SUNNY     66  41  39 CALM      30.00S
WOLF POINT     SUNNY     70  40  33 VRB5      29.98F
GLENDIVE       SUNNY     66  46  48 CALM      30.00F
MILES CITY     MOSUNNY   67  48  50 CALM      29.99F
BAKER          SUNNY     73  47  39 VRB3      30.00F
$$

CITY           SKY/WX    TMP DP  RH WIND       PRES   REMARKS
BILLINGS       PTSUNNY   74  44  34 SW15      30.01F
GREAT FALLS    MOSUNNY   72  39  30 SW7       29.99S
REGINA         MOSUNNY   70  43  37 S7        29.95F
ESTEVAN        MOSUNNY   70  41  35 W3        29.98F
$$



USA.gov is the U.S. government's official web portal to all federal, state and local government web resources and services.